BEZ313 TDPD-TJBQ

Flight info

Callsign BEZ313
Flight time 2h 19m
Altitude 10000
Route ILURI A555 COY RTE4 BQN
Aircraft C208/L-VGD/C

Departure

Time 2026-04-28 23:31
Airport Douglas-Charles Airport (TDPD)

Arrival

Time 2026-04-29 01:50
Airport Rafael Hernández International Airport (TJBQ)
Time Latitude Longitude Altitude Speed Heading
2026-04-28 23:21 15.54612 -61.29975 64 ft 0 kts 249°
2026-04-28 23:26 15.54611 -61.29993 65 ft 7 kts 273°
2026-04-28 23:26 15.54607 -61.30042 68 ft 4 kts 258°
2026-04-28 23:27 15.54594 -61.30080 71 ft 10 kts 248°
2026-04-28 23:27 15.54573 -61.30145 75 ft 7 kts 267°
2026-04-28 23:27 15.54578 -61.30168 77 ft 0 kts 296°
2026-04-28 23:28 15.54601 -61.30213 80 ft 8 kts 294°
2026-04-28 23:28 15.54605 -61.30262 83 ft 6 kts 257°
2026-04-28 23:28 15.54586 -61.30336 88 ft 14 kts 251°
2026-04-28 23:28 15.54543 -61.30458 95 ft 20 kts 252°
2026-04-28 23:29 15.54501 -61.30589 104 ft 18 kts 242°
2026-04-28 23:29 15.54459 -61.30704 112 ft 16 kts 250°
2026-04-28 23:29 15.54425 -61.30809 119 ft 14 kts 248°
2026-04-28 23:29 15.54394 -61.30876 124 ft 8 kts 125°
2026-04-28 23:30 15.54411 -61.30821 120 ft 12 kts 69°
2026-04-28 23:30 15.54509 -61.30563 103 ft 68 kts 71°
2026-04-28 23:30 15.54717 -61.29993 219 ft 89 kts 70°
2026-04-28 23:30 15.54998 -61.29375 394 ft 101 kts 50°
2026-04-28 23:31 15.55602 -61.28995 652 ft 105 kts 13°
2026-04-28 23:31 15.56340 -61.29085 906 ft 109 kts 349°
2026-04-28 23:31 15.57071 -61.29336 1137 ft 111 kts 346°
2026-04-28 23:31 15.57809 -61.29621 1337 ft 115 kts 345°
2026-04-28 23:32 15.58570 -61.29927 1538 ft 119 kts 345°
2026-04-28 23:32 15.59347 -61.30248 1736 ft 122 kts 345°
2026-04-28 23:32 15.60155 -61.30585 1932 ft 125 kts 345°
2026-04-28 23:32 15.60974 -61.30926 2107 ft 129 kts 345°
2026-04-28 23:33 15.61825 -61.31273 2281 ft 133 kts 343°
2026-04-28 23:33 15.62539 -61.31918 2472 ft 142 kts 305°
2026-04-28 23:33 15.63021 -61.32825 2648 ft 145 kts 299°
2026-04-28 23:33 15.63452 -61.33769 2819 ft 147 kts 297°
2026-04-28 23:34 15.63877 -61.34749 2992 ft 148 kts 296°
2026-04-28 23:34 15.64290 -61.35722 3164 ft 149 kts 296°
2026-04-28 23:34 15.64703 -61.36711 3335 ft 149 kts 296°
2026-04-28 23:34 15.65109 -61.37695 3505 ft 149 kts 296°
2026-04-28 23:35 15.65515 -61.38686 3675 ft 149 kts 296°
2026-04-28 23:35 15.65918 -61.39673 3844 ft 149 kts 296°
2026-04-28 23:35 15.66324 -61.40669 4016 ft 148 kts 296°
2026-04-28 23:35 15.66722 -61.41650 4185 ft 148 kts 296°
2026-04-28 23:36 15.67123 -61.42639 4356 ft 147 kts 296°
2026-04-28 23:36 15.67521 -61.43622 4526 ft 147 kts 297°
2026-04-28 23:36 15.67913 -61.44590 4693 ft 147 kts 297°
2026-04-28 23:36 15.68308 -61.45564 4863 ft 146 kts 297°
2026-04-28 23:37 15.68703 -61.46534 5032 ft 146 kts 296°
2026-04-28 23:37 15.69101 -61.47514 5204 ft 146 kts 296°
2026-04-28 23:37 15.69493 -61.48489 5375 ft 149 kts 296°
2026-04-28 23:37 15.69894 -61.49477 5566 ft 149 kts 296°
2026-04-28 23:38 15.70293 -61.50465 5760 ft 149 kts 296°
2026-04-28 23:38 15.70693 -61.51457 5992 ft 146 kts 297°
2026-04-28 23:38 15.71083 -61.52422 6230 ft 143 kts 297°
2026-04-28 23:38 15.71462 -61.53359 6466 ft 140 kts 297°
2026-04-28 23:39 15.71832 -61.54275 6702 ft 137 kts 298°
2026-04-28 23:39 15.72198 -61.55181 6941 ft 135 kts 298°
2026-04-28 23:39 15.72559 -61.56073 7179 ft 133 kts 298°
2026-04-28 23:39 15.72912 -61.56946 7416 ft 130 kts 298°
2026-04-28 23:40 15.73262 -61.57813 7655 ft 128 kts 298°
2026-04-28 23:40 15.73600 -61.58649 7891 ft 124 kts 298°
2026-04-28 23:40 15.73927 -61.59461 8121 ft 121 kts 298°
2026-04-28 23:40 15.74247 -61.60257 8355 ft 117 kts 298°
2026-04-28 23:41 15.74554 -61.61020 8582 ft 112 kts 298°
2026-04-28 23:41 15.74836 -61.61756 8799 ft 110 kts 287°
2026-04-28 23:41 15.75077 -61.62497 8998 ft 109 kts 296°
2026-04-28 23:41 15.75362 -61.63256 9172 ft 114 kts 295°
2026-04-28 23:42 15.75695 -61.64046 9318 ft 122 kts 300°
2026-04-28 23:42 15.76056 -61.64870 9454 ft 131 kts 300°
2026-04-28 23:42 15.76437 -61.65760 9585 ft 139 kts 298°
2026-04-28 23:42 15.76837 -61.66712 9714 ft 145 kts 298°
2026-04-28 23:43 15.77243 -61.67691 9837 ft 151 kts 297°
2026-04-28 23:43 15.77661 -61.68711 9947 ft 157 kts 296°
2026-04-28 23:43 15.78102 -61.69793 9968 ft 166 kts 296°
2026-04-28 23:43 15.78562 -61.70927 9969 ft 174 kts 296°
2026-04-28 23:44 15.79038 -61.72103 9968 ft 179 kts 296°
2026-04-28 23:44 15.79521 -61.73298 9966 ft 181 kts 296°
2026-04-28 23:44 15.80006 -61.74501 9966 ft 180 kts 296°
2026-04-28 23:44 15.80488 -61.75697 9965 ft 179 kts 296°
2026-04-28 23:45 15.80972 -61.76896 9968 ft 179 kts 296°
2026-04-28 23:45 15.81449 -61.78080 9967 ft 179 kts 296°
2026-04-28 23:45 15.81931 -61.79280 9966 ft 179 kts 296°
2026-04-28 23:45 15.82407 -61.80463 9967 ft 178 kts 296°
2026-04-28 23:46 15.82885 -61.81650 9966 ft 178 kts 296°
2026-04-28 23:46 15.83366 -61.82845 9965 ft 178 kts 296°
2026-04-28 23:46 15.83845 -61.84034 9965 ft 178 kts 296°
2026-04-28 23:46 15.84324 -61.85220 9966 ft 178 kts 296°
2026-04-28 23:47 15.84802 -61.86410 9965 ft 178 kts 296°
2026-04-28 23:47 15.85275 -61.87587 9965 ft 178 kts 296°
2026-04-28 23:47 15.85755 -61.88778 9964 ft 178 kts 296°
2026-04-28 23:47 15.86230 -61.89958 9963 ft 178 kts 296°
2026-04-28 23:48 15.86710 -61.91154 9964 ft 178 kts 296°
2026-04-28 23:48 15.87188 -61.92341 9963 ft 178 kts 296°
2026-04-28 23:48 15.87664 -61.93524 9963 ft 178 kts 296°
2026-04-28 23:48 15.88148 -61.94724 9962 ft 178 kts 296°
2026-04-28 23:49 15.88619 -61.95899 9962 ft 178 kts 296°
2026-04-28 23:49 15.89100 -61.97095 9962 ft 178 kts 296°
2026-04-28 23:49 15.89571 -61.98270 9962 ft 177 kts 296°
2026-04-28 23:49 15.90050 -61.99465 9962 ft 178 kts 296°
2026-04-28 23:50 15.90522 -62.00640 9962 ft 178 kts 296°
2026-04-28 23:50 15.90998 -62.01823 9962 ft 178 kts 296°
2026-04-28 23:50 15.91475 -62.03011 9961 ft 178 kts 296°
2026-04-28 23:50 15.91955 -62.04206 9962 ft 178 kts 296°
2026-04-28 23:51 15.92430 -62.05388 9962 ft 178 kts 296°
2026-04-28 23:51 15.92914 -62.06592 9961 ft 179 kts 296°
2026-04-28 23:51 15.93389 -62.07777 9963 ft 179 kts 296°
2026-04-28 23:51 15.93872 -62.08980 9962 ft 179 kts 296°
2026-04-28 23:52 15.94346 -62.10165 9962 ft 178 kts 296°
2026-04-28 23:52 15.94824 -62.11360 9962 ft 178 kts 296°
2026-04-28 23:52 15.95303 -62.12554 9962 ft 178 kts 296°
2026-04-28 23:52 15.95776 -62.13735 9961 ft 178 kts 296°
2026-04-28 23:53 15.96254 -62.14926 9961 ft 178 kts 296°
2026-04-28 23:53 15.96728 -62.16109 9961 ft 178 kts 296°
2026-04-28 23:53 15.97202 -62.17296 9962 ft 178 kts 296°
2026-04-28 23:53 15.97684 -62.18496 9961 ft 178 kts 296°
2026-04-28 23:54 15.98158 -62.19680 9962 ft 178 kts 296°
2026-04-28 23:54 15.98636 -62.20874 9962 ft 179 kts 296°
2026-04-28 23:54 15.99117 -62.22075 9962 ft 179 kts 297°
2026-04-28 23:54 15.99594 -62.23266 9962 ft 179 kts 296°
2026-04-28 23:55 16.00071 -62.24457 9962 ft 178 kts 296°
2026-04-28 23:55 16.00545 -62.25639 9962 ft 178 kts 296°
2026-04-28 23:55 16.01018 -62.26826 9963 ft 178 kts 296°
2026-04-28 23:55 16.01499 -62.28026 9963 ft 178 kts 296°
2026-04-28 23:56 16.01971 -62.29208 9963 ft 178 kts 296°
2026-04-28 23:56 16.02452 -62.30413 9963 ft 179 kts 296°
2026-04-28 23:56 16.02927 -62.31602 9964 ft 179 kts 296°
2026-04-28 23:56 16.03406 -62.32798 9963 ft 179 kts 296°
2026-04-28 23:57 16.03880 -62.33985 9963 ft 179 kts 296°
2026-04-28 23:57 16.04361 -62.35185 9962 ft 179 kts 296°
2026-04-28 23:57 16.04835 -62.36374 9963 ft 179 kts 296°
2026-04-28 23:57 16.05312 -62.37568 9963 ft 179 kts 296°
2026-04-28 23:58 16.05793 -62.38773 9963 ft 179 kts 296°
2026-04-28 23:58 16.06268 -62.39961 9963 ft 178 kts 296°
2026-04-28 23:58 16.06743 -62.41151 9965 ft 178 kts 296°
2026-04-28 23:58 16.07221 -62.42355 9967 ft 178 kts 296°
2026-04-28 23:59 16.07695 -62.43543 9966 ft 178 kts 296°
2026-04-28 23:59 16.08169 -62.44732 9966 ft 179 kts 297°
2026-04-28 23:59 16.08644 -62.45922 9966 ft 179 kts 296°
2026-04-28 23:59 16.09123 -62.47120 9965 ft 179 kts 296°
2026-04-29 00:00 16.09597 -62.48310 9965 ft 179 kts 297°
2026-04-29 00:00 16.10078 -62.49517 9964 ft 179 kts 296°
2026-04-29 00:00 16.10550 -62.50703 9966 ft 179 kts 296°
2026-04-29 00:00 16.11033 -62.51915 9967 ft 179 kts 296°
2026-04-29 00:01 16.11512 -62.53110 9968 ft 179 kts 296°
2026-04-29 00:01 16.11986 -62.54300 9969 ft 179 kts 296°
2026-04-29 00:01 16.12465 -62.55507 9970 ft 179 kts 296°
2026-04-29 00:01 16.12938 -62.56699 9969 ft 179 kts 296°
2026-04-29 00:02 16.13416 -62.57899 9969 ft 179 kts 296°
2026-04-29 00:02 16.13890 -62.59091 9969 ft 179 kts 296°
2026-04-29 00:02 16.14370 -62.60298 9971 ft 179 kts 296°
2026-04-29 00:02 16.14846 -62.61491 9973 ft 179 kts 296°
2026-04-29 00:03 16.15322 -62.62686 9978 ft 179 kts 296°
2026-04-29 00:03 16.15803 -62.63894 9982 ft 179 kts 296°
2026-04-29 00:03 16.16277 -62.65087 9985 ft 179 kts 296°
2026-04-29 00:03 16.16753 -62.66282 9983 ft 179 kts 295°
2026-04-29 00:04 16.17231 -62.67489 9984 ft 179 kts 296°
2026-04-29 00:04 16.17701 -62.68674 9983 ft 179 kts 296°
2026-04-29 00:04 16.18178 -62.69873 9983 ft 179 kts 296°
2026-04-29 00:04 16.18656 -62.71075 9983 ft 178 kts 296°
2026-04-29 00:05 16.19130 -62.72268 9982 ft 178 kts 296°
2026-04-29 00:05 16.19603 -62.73459 9983 ft 178 kts 296°
2026-04-29 00:05 16.20079 -62.74659 9983 ft 178 kts 295°
2026-04-29 00:05 16.20548 -62.75842 9983 ft 178 kts 296°
2026-04-29 00:06 16.21020 -62.77031 9983 ft 178 kts 296°
2026-04-29 00:06 16.21497 -62.78234 9983 ft 178 kts 296°
2026-04-29 00:06 16.21969 -62.79422 9981 ft 178 kts 296°
2026-04-29 00:06 16.22446 -62.80629 9977 ft 179 kts 296°
2026-04-29 00:07 16.22920 -62.81823 9974 ft 179 kts 296°
2026-04-29 00:07 16.23393 -62.83017 9969 ft 179 kts 296°
2026-04-29 00:07 16.23869 -62.84221 9968 ft 179 kts 297°
2026-04-29 00:07 16.24346 -62.85422 9969 ft 179 kts 297°
2026-04-29 00:08 16.24816 -62.86608 9968 ft 179 kts 297°
2026-04-29 00:08 16.25296 -62.87817 9968 ft 179 kts 297°
2026-04-29 00:08 16.25772 -62.89015 9968 ft 179 kts 296°
2026-04-29 00:08 16.26242 -62.90207 9969 ft 179 kts 296°
2026-04-29 00:09 16.26719 -62.91409 9968 ft 179 kts 296°
2026-04-29 00:09 16.27189 -62.92599 9968 ft 179 kts 296°
2026-04-29 00:09 16.27666 -62.93801 9968 ft 179 kts 296°
2026-04-29 00:09 16.28142 -62.95004 9970 ft 179 kts 296°
2026-04-29 00:10 16.28613 -62.96192 9971 ft 179 kts 296°
2026-04-29 00:10 16.29089 -62.97397 9970 ft 179 kts 296°
2026-04-29 00:10 16.29560 -62.98586 9969 ft 179 kts 296°
2026-04-29 00:10 16.30044 -62.99780 9967 ft 177 kts 303°
2026-04-29 00:11 16.30786 -63.00783 9971 ft 174 kts 315°
2026-04-29 00:11 16.31575 -63.01726 9968 ft 173 kts 317°
2026-04-29 00:11 16.33193 -63.03608 9969 ft 173 kts 316°
2026-04-29 00:12 16.33991 -63.04541 9970 ft 173 kts 317°
2026-04-29 00:12 16.34797 -63.05486 9970 ft 173 kts 316°
2026-04-29 00:12 16.35597 -63.06420 9970 ft 173 kts 316°
2026-04-29 00:12 16.36396 -63.07355 9969 ft 173 kts 316°
2026-04-29 00:13 16.37195 -63.08294 9969 ft 173 kts 316°
2026-04-29 00:13 16.38009 -63.09246 9968 ft 174 kts 316°
2026-04-29 00:13 16.38805 -63.10181 9969 ft 174 kts 316°
2026-04-29 00:13 16.39604 -63.11122 9970 ft 174 kts 316°
2026-04-29 00:14 16.40408 -63.12064 9970 ft 173 kts 316°
2026-04-29 00:14 16.41212 -63.13009 9970 ft 173 kts 316°
2026-04-29 00:14 16.42013 -63.13950 9972 ft 173 kts 316°
2026-04-29 00:14 16.42812 -63.14887 9972 ft 173 kts 316°
2026-04-29 00:15 16.43609 -63.15826 9972 ft 173 kts 316°
2026-04-29 00:15 16.44409 -63.16764 9972 ft 173 kts 316°
2026-04-29 00:15 16.45217 -63.17713 9972 ft 173 kts 316°
2026-04-29 00:15 16.46016 -63.18650 9972 ft 173 kts 316°
2026-04-29 00:16 16.46811 -63.19584 9972 ft 173 kts 316°
2026-04-29 00:16 16.47611 -63.20524 9972 ft 173 kts 316°
2026-04-29 00:16 16.48420 -63.21475 9972 ft 174 kts 316°
2026-04-29 00:16 16.49219 -63.22415 9971 ft 174 kts 316°
2026-04-29 00:17 16.50017 -63.23356 9968 ft 173 kts 316°
2026-04-29 00:17 16.50820 -63.24298 9967 ft 173 kts 316°
2026-04-29 00:17 16.51620 -63.25239 9965 ft 173 kts 316°
2026-04-29 00:17 16.52420 -63.26181 9964 ft 173 kts 316°
2026-04-29 00:18 16.53217 -63.27118 9966 ft 172 kts 316°
2026-04-29 00:18 16.54014 -63.28056 9968 ft 172 kts 316°
2026-04-29 00:18 16.54807 -63.28988 9968 ft 172 kts 316°
2026-04-29 00:18 16.55605 -63.29927 9967 ft 172 kts 316°
2026-04-29 00:19 16.56410 -63.30874 9966 ft 173 kts 315°
2026-04-29 00:19 16.57200 -63.31806 9964 ft 173 kts 315°
2026-04-29 00:19 16.57996 -63.32742 9963 ft 173 kts 315°
2026-04-29 00:19 16.58801 -63.33688 9963 ft 173 kts 316°
2026-04-29 00:20 16.59599 -63.34631 9962 ft 173 kts 315°
2026-04-29 00:20 16.60399 -63.35572 9961 ft 173 kts 315°
2026-04-29 00:20 16.61195 -63.36510 9960 ft 172 kts 316°
2026-04-29 00:20 16.61990 -63.37448 9960 ft 172 kts 316°
2026-04-29 00:21 16.62783 -63.38382 9960 ft 172 kts 316°
2026-04-29 00:21 16.63579 -63.39319 9961 ft 172 kts 315°
2026-04-29 00:21 16.64380 -63.40262 9960 ft 172 kts 315°
2026-04-29 00:21 16.65174 -63.41198 9960 ft 172 kts 315°
2026-04-29 00:22 16.65963 -63.42128 9960 ft 172 kts 316°
2026-04-29 00:22 16.66754 -63.43060 9960 ft 172 kts 316°
2026-04-29 00:22 16.67557 -63.44008 9961 ft 172 kts 315°
2026-04-29 00:22 16.68348 -63.44942 9960 ft 172 kts 315°
2026-04-29 00:23 16.69142 -63.45876 9961 ft 172 kts 315°
2026-04-29 00:23 16.69934 -63.46811 9961 ft 172 kts 315°
2026-04-29 00:23 16.70725 -63.47745 9961 ft 172 kts 315°
2026-04-29 00:23 16.71523 -63.48688 9960 ft 172 kts 315°
2026-04-29 00:24 16.72311 -63.49618 9960 ft 172 kts 315°
2026-04-29 00:24 16.73101 -63.50550 9960 ft 172 kts 315°
2026-04-29 00:24 16.73892 -63.51484 9960 ft 172 kts 315°
2026-04-29 00:24 16.74686 -63.52422 9961 ft 172 kts 315°
2026-04-29 00:25 16.75479 -63.53359 9961 ft 172 kts 315°
2026-04-29 00:25 16.76269 -63.54291 9961 ft 171 kts 315°
2026-04-29 00:25 16.77061 -63.55225 9961 ft 171 kts 315°
2026-04-29 00:25 16.77851 -63.56158 9962 ft 171 kts 315°
2026-04-29 00:26 16.78638 -63.57090 9962 ft 171 kts 315°
2026-04-29 00:26 16.79429 -63.58024 9962 ft 171 kts 315°
2026-04-29 00:26 16.80228 -63.58965 9963 ft 171 kts 315°
2026-04-29 00:26 16.81007 -63.59890 9963 ft 171 kts 315°
2026-04-29 00:27 16.81794 -63.60821 9963 ft 171 kts 315°
2026-04-29 00:27 16.82586 -63.61758 9963 ft 171 kts 315°
2026-04-29 00:27 16.83378 -63.62694 9963 ft 171 kts 315°
2026-04-29 00:27 16.84168 -63.63627 9963 ft 171 kts 315°
2026-04-29 00:28 16.84961 -63.64567 9963 ft 171 kts 315°
2026-04-29 00:28 16.85755 -63.65503 9961 ft 171 kts 315°
2026-04-29 00:28 16.86542 -63.66435 9961 ft 171 kts 315°
2026-04-29 00:28 16.87322 -63.67357 9961 ft 171 kts 314°
2026-04-29 00:29 16.88107 -63.68287 9960 ft 171 kts 314°
2026-04-29 00:29 16.88899 -63.69222 9961 ft 171 kts 314°
2026-04-29 00:29 16.89683 -63.70151 9961 ft 171 kts 314°
2026-04-29 00:29 16.90471 -63.71086 9961 ft 171 kts 314°
2026-04-29 00:30 16.91260 -63.72020 9961 ft 171 kts 314°
2026-04-29 00:30 16.92046 -63.72954 9961 ft 171 kts 315°
2026-04-29 00:30 16.92834 -63.73886 9961 ft 171 kts 315°
2026-04-29 00:30 16.93622 -63.74819 9961 ft 171 kts 315°
2026-04-29 00:31 16.94411 -63.75752 9961 ft 170 kts 315°
2026-04-29 00:31 16.95189 -63.76673 9961 ft 170 kts 314°
2026-04-29 00:31 16.95974 -63.77603 9961 ft 170 kts 314°
2026-04-29 00:31 16.96762 -63.78536 9961 ft 170 kts 314°
2026-04-29 00:32 16.97545 -63.79462 9961 ft 170 kts 314°
2026-04-29 00:32 16.98329 -63.80391 9961 ft 170 kts 314°
2026-04-29 00:32 16.99111 -63.81321 9962 ft 170 kts 313°
2026-04-29 00:32 16.99895 -63.82253 9962 ft 170 kts 314°
2026-04-29 00:33 17.00676 -63.83181 9962 ft 170 kts 314°
2026-04-29 00:33 17.01456 -63.84106 9961 ft 170 kts 314°
2026-04-29 00:33 17.02236 -63.85033 9961 ft 170 kts 314°
2026-04-29 00:33 17.03025 -63.85968 9961 ft 170 kts 314°
2026-04-29 00:34 17.03799 -63.86887 9961 ft 170 kts 314°
2026-04-29 00:34 17.04585 -63.87819 9962 ft 170 kts 314°
2026-04-29 00:34 17.05371 -63.88751 9962 ft 170 kts 314°
2026-04-29 00:34 17.06144 -63.89669 9962 ft 169 kts 314°
2026-04-29 00:35 17.06927 -63.90598 9962 ft 169 kts 314°
2026-04-29 00:35 17.07710 -63.91525 9963 ft 169 kts 314°
2026-04-29 00:35 17.08485 -63.92447 9963 ft 169 kts 314°
2026-04-29 00:35 17.09263 -63.93371 9963 ft 169 kts 314°
2026-04-29 00:36 17.10033 -63.94285 9963 ft 168 kts 314°
2026-04-29 00:36 17.10821 -63.95224 9965 ft 169 kts 314°
2026-04-29 00:36 17.11597 -63.96147 9963 ft 169 kts 314°
2026-04-29 00:36 17.12374 -63.97071 9964 ft 169 kts 314°
2026-04-29 00:37 17.13147 -63.97989 9964 ft 169 kts 314°
2026-04-29 00:37 17.13933 -63.98921 9965 ft 169 kts 314°
2026-04-29 00:37 17.14705 -63.99842 9966 ft 169 kts 314°
2026-04-29 00:37 17.15484 -64.00767 9966 ft 169 kts 314°
2026-04-29 00:38 17.16261 -64.01691 9966 ft 169 kts 314°
2026-04-29 00:38 17.17038 -64.02613 9966 ft 169 kts 314°
2026-04-29 00:38 17.17813 -64.03535 9966 ft 169 kts 313°
2026-04-29 00:38 17.18599 -64.04469 9966 ft 169 kts 313°
2026-04-29 00:39 17.19372 -64.05390 9966 ft 169 kts 313°
2026-04-29 00:39 17.20148 -64.06314 9966 ft 169 kts 313°
2026-04-29 00:39 17.20921 -64.07234 9967 ft 169 kts 313°
2026-04-29 00:39 17.21708 -64.08174 9967 ft 169 kts 314°
2026-04-29 00:40 17.22483 -64.09097 9967 ft 169 kts 314°
2026-04-29 00:40 17.23260 -64.10022 9967 ft 169 kts 314°
2026-04-29 00:40 17.24036 -64.10947 9968 ft 169 kts 314°
2026-04-29 00:40 17.24814 -64.11873 9968 ft 169 kts 313°
2026-04-29 00:41 17.25597 -64.12803 9968 ft 169 kts 314°
2026-04-29 00:41 17.26363 -64.13718 9968 ft 168 kts 313°
2026-04-29 00:41 17.27144 -64.14646 9968 ft 168 kts 313°
2026-04-29 00:41 17.27911 -64.15559 9968 ft 168 kts 313°
2026-04-29 00:42 17.28688 -64.16488 9968 ft 168 kts 313°
2026-04-29 00:42 17.29460 -64.17406 9969 ft 168 kts 313°
2026-04-29 00:42 17.30232 -64.18327 9969 ft 168 kts 313°
2026-04-29 00:42 17.31007 -64.19252 9969 ft 168 kts 313°
2026-04-29 00:43 17.31781 -64.20177 9969 ft 168 kts 313°
2026-04-29 00:43 17.32553 -64.21098 9969 ft 168 kts 313°
2026-04-29 00:43 17.33331 -64.22026 9969 ft 168 kts 313°
2026-04-29 00:43 17.34101 -64.22945 9968 ft 168 kts 314°
2026-04-29 00:44 17.34885 -64.23878 9967 ft 168 kts 314°
2026-04-29 00:44 17.35657 -64.24799 9969 ft 168 kts 313°
2026-04-29 00:44 17.36427 -64.25718 9969 ft 168 kts 313°
2026-04-29 00:44 17.37196 -64.26637 9970 ft 168 kts 313°
2026-04-29 00:45 17.37971 -64.27560 9971 ft 168 kts 313°
2026-04-29 00:45 17.38736 -64.28475 9971 ft 168 kts 313°
2026-04-29 00:45 17.39507 -64.29397 9971 ft 168 kts 313°
2026-04-29 00:45 17.40281 -64.30322 9970 ft 168 kts 313°
2026-04-29 00:46 17.41055 -64.31245 9970 ft 168 kts 313°
2026-04-29 00:46 17.41817 -64.32157 9971 ft 168 kts 313°
2026-04-29 00:46 17.42591 -64.33081 9971 ft 168 kts 313°
2026-04-29 00:46 17.43367 -64.34010 9972 ft 168 kts 313°
2026-04-29 00:47 17.44129 -64.34920 9972 ft 168 kts 313°
2026-04-29 00:47 17.44907 -64.35850 9972 ft 168 kts 313°
2026-04-29 00:47 17.45680 -64.36773 9972 ft 168 kts 313°
2026-04-29 00:47 17.46447 -64.37689 9973 ft 168 kts 313°
2026-04-29 00:48 17.47211 -64.38603 9974 ft 168 kts 313°
2026-04-29 00:48 17.47988 -64.39532 9974 ft 168 kts 312°
2026-04-29 00:48 17.48752 -64.40448 9974 ft 167 kts 313°
2026-04-29 00:48 17.49518 -64.41364 9973 ft 167 kts 312°
2026-04-29 00:49 17.50294 -64.42292 9974 ft 167 kts 312°
2026-04-29 00:49 17.51063 -64.43212 9974 ft 167 kts 313°
2026-04-29 00:49 17.51831 -64.44132 9974 ft 167 kts 312°
2026-04-29 00:49 17.52594 -64.45047 9975 ft 167 kts 312°
2026-04-29 00:50 17.53364 -64.45969 9976 ft 167 kts 312°
2026-04-29 00:50 17.54123 -64.46879 9977 ft 167 kts 313°
2026-04-29 00:50 17.54894 -64.47800 9976 ft 167 kts 313°
2026-04-29 00:50 17.55663 -64.48722 9976 ft 167 kts 313°
2026-04-29 00:51 17.56425 -64.49634 9976 ft 167 kts 312°
2026-04-29 00:51 17.57199 -64.50562 9975 ft 167 kts 312°
2026-04-29 00:51 17.57961 -64.51475 9974 ft 167 kts 313°
2026-04-29 00:51 17.58731 -64.52398 9974 ft 167 kts 313°
2026-04-29 00:52 17.59495 -64.53313 9976 ft 167 kts 313°
2026-04-29 00:52 17.60272 -64.54243 9976 ft 168 kts 313°
2026-04-29 00:52 17.61034 -64.55158 9976 ft 168 kts 312°
2026-04-29 00:52 17.61805 -64.56082 9976 ft 168 kts 312°
2026-04-29 00:53 17.62575 -64.57006 9980 ft 167 kts 313°
2026-04-29 00:53 17.63341 -64.57925 9980 ft 168 kts 313°
2026-04-29 00:53 17.64108 -64.58845 9980 ft 168 kts 313°
2026-04-29 00:53 17.64879 -64.59769 9978 ft 168 kts 313°
2026-04-29 00:54 17.65645 -64.60689 9979 ft 168 kts 312°
2026-04-29 00:54 17.66417 -64.61613 9981 ft 168 kts 312°
2026-04-29 00:54 17.67184 -64.62534 9984 ft 168 kts 312°
2026-04-29 00:54 17.67953 -64.63458 9985 ft 167 kts 312°
2026-04-29 00:55 17.68718 -64.64378 9986 ft 167 kts 313°
2026-04-29 00:55 17.69487 -64.65302 9985 ft 167 kts 312°
2026-04-29 00:55 17.70259 -64.66229 9986 ft 167 kts 312°
2026-04-29 00:55 17.71024 -64.67147 9988 ft 167 kts 312°
2026-04-29 00:56 17.71788 -64.68068 9988 ft 167 kts 312°
2026-04-29 00:56 17.72550 -64.68980 9989 ft 167 kts 312°
2026-04-29 00:56 17.73292 -64.69926 9991 ft 168 kts 300°
2026-04-29 00:56 17.73641 -64.71099 9996 ft 169 kts 286°
2026-04-29 00:57 17.73921 -64.72303 9992 ft 170 kts 283°
2026-04-29 00:57 17.74181 -64.73521 9993 ft 170 kts 283°
2026-04-29 00:57 17.74438 -64.74737 9993 ft 170 kts 283°
2026-04-29 00:57 17.74690 -64.75942 9993 ft 170 kts 283°
2026-04-29 00:58 17.74945 -64.77148 9992 ft 170 kts 283°
2026-04-29 00:58 17.75202 -64.78368 9992 ft 170 kts 284°
2026-04-29 00:58 17.75455 -64.79569 9991 ft 170 kts 283°
2026-04-29 00:58 17.75712 -64.80781 9991 ft 170 kts 283°
2026-04-29 00:59 17.75966 -64.81989 9991 ft 170 kts 284°
2026-04-29 00:59 17.76222 -64.83210 9990 ft 170 kts 284°
2026-04-29 00:59 17.76477 -64.84422 9989 ft 170 kts 283°
2026-04-29 00:59 17.76731 -64.85630 9989 ft 170 kts 283°
2026-04-29 01:00 17.76987 -64.86840 9992 ft 170 kts 283°
2026-04-29 01:00 17.77243 -64.88060 9988 ft 171 kts 283°
2026-04-29 01:00 17.77497 -64.89272 9988 ft 171 kts 283°
2026-04-29 01:00 17.77754 -64.90494 9986 ft 171 kts 283°
2026-04-29 01:01 17.78007 -64.91706 9986 ft 170 kts 283°
2026-04-29 01:01 17.78262 -64.92922 9989 ft 170 kts 284°
2026-04-29 01:01 17.78517 -64.94138 9987 ft 170 kts 283°
2026-04-29 01:01 17.78774 -64.95352 9985 ft 170 kts 284°
2026-04-29 01:02 17.79026 -64.96562 9983 ft 170 kts 283°
2026-04-29 01:02 17.79281 -64.97775 9984 ft 170 kts 283°
2026-04-29 01:02 17.79533 -64.98985 9982 ft 170 kts 284°
2026-04-29 01:02 17.79788 -65.00195 9982 ft 170 kts 284°
2026-04-29 01:03 17.80046 -65.01421 9983 ft 170 kts 283°
2026-04-29 01:03 17.80300 -65.02636 9983 ft 171 kts 283°
2026-04-29 01:03 17.80556 -65.03854 9984 ft 171 kts 283°
2026-04-29 01:03 17.80808 -65.05061 9981 ft 171 kts 283°
2026-04-29 01:04 17.81064 -65.06284 9980 ft 171 kts 283°
2026-04-29 01:04 17.81318 -65.07505 9978 ft 171 kts 283°
2026-04-29 01:04 17.81573 -65.08724 9977 ft 171 kts 283°
2026-04-29 01:04 17.81827 -65.09943 9978 ft 171 kts 283°
2026-04-29 01:05 17.82081 -65.11159 9980 ft 171 kts 283°
2026-04-29 01:05 17.82334 -65.12382 9978 ft 171 kts 283°
2026-04-29 01:05 17.82587 -65.13597 9978 ft 170 kts 283°
2026-04-29 01:05 17.82843 -65.14812 9978 ft 170 kts 283°
2026-04-29 01:06 17.83095 -65.16022 9980 ft 170 kts 283°
2026-04-29 01:06 17.83348 -65.17236 9982 ft 170 kts 283°
2026-04-29 01:06 17.83599 -65.18433 9983 ft 170 kts 283°
2026-04-29 01:06 17.83854 -65.19651 9982 ft 170 kts 283°
2026-04-29 01:07 17.84104 -65.20864 9979 ft 169 kts 283°
2026-04-29 01:07 17.84358 -65.22076 9981 ft 169 kts 283°
2026-04-29 01:07 17.84608 -65.23285 9979 ft 170 kts 283°
2026-04-29 01:07 17.84858 -65.24484 9982 ft 170 kts 283°
2026-04-29 01:08 17.85112 -65.25700 9980 ft 170 kts 283°
2026-04-29 01:08 17.85364 -65.26919 9980 ft 170 kts 284°
2026-04-29 01:08 17.85613 -65.28116 9978 ft 170 kts 283°
2026-04-29 01:08 17.85866 -65.29330 9979 ft 170 kts 283°
2026-04-29 01:09 17.86119 -65.30546 9978 ft 170 kts 283°
2026-04-29 01:09 17.86368 -65.31747 9977 ft 170 kts 284°
2026-04-29 01:09 17.86620 -65.32964 9977 ft 170 kts 283°
2026-04-29 01:09 17.86872 -65.34180 9978 ft 170 kts 284°
2026-04-29 01:10 17.87126 -65.35393 9978 ft 170 kts 283°
2026-04-29 01:10 17.87375 -65.36592 9979 ft 170 kts 283°
2026-04-29 01:10 17.87629 -65.37817 9977 ft 170 kts 283°
2026-04-29 01:10 17.87880 -65.39025 9979 ft 169 kts 283°
2026-04-29 01:11 17.88129 -65.40229 9982 ft 169 kts 283°
2026-04-29 01:11 17.88376 -65.41431 9982 ft 169 kts 283°
2026-04-29 01:11 17.88629 -65.42638 9981 ft 169 kts 283°
2026-04-29 01:11 17.88873 -65.43834 9974 ft 169 kts 283°
2026-04-29 01:12 17.89125 -65.45044 9971 ft 169 kts 283°
2026-04-29 01:12 17.89375 -65.46255 9970 ft 169 kts 283°
2026-04-29 01:12 17.89626 -65.47469 9966 ft 169 kts 283°
2026-04-29 01:12 17.89877 -65.48679 9969 ft 169 kts 283°
2026-04-29 01:13 17.90125 -65.49875 9969 ft 169 kts 283°
2026-04-29 01:13 17.90373 -65.51080 9969 ft 169 kts 283°
2026-04-29 01:13 17.90624 -65.52288 9969 ft 169 kts 283°
2026-04-29 01:13 17.90872 -65.53493 9970 ft 169 kts 282°
2026-04-29 01:14 17.91121 -65.54697 9970 ft 169 kts 282°
2026-04-29 01:14 17.91370 -65.55909 9971 ft 169 kts 283°
2026-04-29 01:14 17.91621 -65.57118 9969 ft 169 kts 283°
2026-04-29 01:14 17.91867 -65.58330 9970 ft 169 kts 283°
2026-04-29 01:15 17.92114 -65.59521 9973 ft 169 kts 283°
2026-04-29 01:15 17.92367 -65.60741 9971 ft 169 kts 283°
2026-04-29 01:15 17.92616 -65.61951 9973 ft 169 kts 283°
2026-04-29 01:15 17.92863 -65.63148 9973 ft 169 kts 283°
2026-04-29 01:16 17.93113 -65.64359 9974 ft 169 kts 283°
2026-04-29 01:16 17.93363 -65.65572 9977 ft 169 kts 282°
2026-04-29 01:16 17.93609 -65.66769 9976 ft 169 kts 282°
2026-04-29 01:16 17.93858 -65.67978 9974 ft 168 kts 282°
2026-04-29 01:17 17.94101 -65.69165 9974 ft 168 kts 282°
2026-04-29 01:17 17.94349 -65.70373 9975 ft 167 kts 282°
2026-04-29 01:17 17.94595 -65.71568 9976 ft 167 kts 282°
2026-04-29 01:17 17.94840 -65.72764 9976 ft 167 kts 282°
2026-04-29 01:18 17.95082 -65.73947 9977 ft 168 kts 282°
2026-04-29 01:18 17.95574 -65.76341 9981 ft 168 kts 283°
2026-04-29 01:18 17.95825 -65.77556 9979 ft 168 kts 282°
2026-04-29 01:19 17.96070 -65.78752 9976 ft 168 kts 283°
2026-04-29 01:19 17.96317 -65.79963 9977 ft 168 kts 282°
2026-04-29 01:19 17.96561 -65.81155 9977 ft 168 kts 282°
2026-04-29 01:19 17.96810 -65.82362 9979 ft 168 kts 282°
2026-04-29 01:20 17.97058 -65.83570 9978 ft 168 kts 282°
2026-04-29 01:20 17.97307 -65.84776 9978 ft 169 kts 282°
2026-04-29 01:20 17.97552 -65.85981 9980 ft 169 kts 282°
2026-04-29 01:20 17.97796 -65.87173 9980 ft 169 kts 282°
2026-04-29 01:21 17.98047 -65.88382 9979 ft 168 kts 285°
2026-04-29 01:21 17.98476 -65.89520 9980 ft 168 kts 293°
2026-04-29 01:21 17.98952 -65.90650 9978 ft 168 kts 294°
2026-04-29 01:21 17.99436 -65.91774 9982 ft 168 kts 294°
2026-04-29 01:22 17.99913 -65.92886 9980 ft 168 kts 294°
2026-04-29 01:22 18.00397 -65.94012 9982 ft 168 kts 294°
2026-04-29 01:22 18.00876 -65.95128 9982 ft 168 kts 294°
2026-04-29 01:22 18.01355 -65.96246 9982 ft 168 kts 294°
2026-04-29 01:23 18.01834 -65.97366 9984 ft 168 kts 294°
2026-04-29 01:23 18.02315 -65.98489 9982 ft 168 kts 294°
2026-04-29 01:23 18.02795 -65.99612 9983 ft 168 kts 294°
2026-04-29 01:23 18.03274 -66.00736 9983 ft 168 kts 294°
2026-04-29 01:24 18.03752 -66.01856 9984 ft 168 kts 294°
2026-04-29 01:24 18.04230 -66.02975 9987 ft 168 kts 294°
2026-04-29 01:24 18.04706 -66.04093 9987 ft 168 kts 294°
2026-04-29 01:24 18.05189 -66.05228 9985 ft 168 kts 294°
2026-04-29 01:25 18.05667 -66.06346 9986 ft 168 kts 294°
2026-04-29 01:25 18.06145 -66.07471 9987 ft 168 kts 295°
2026-04-29 01:25 18.06622 -66.08589 9989 ft 168 kts 294°
2026-04-29 01:25 18.07105 -66.09719 9990 ft 168 kts 294°
2026-04-29 01:26 18.07578 -66.10829 9992 ft 168 kts 294°
2026-04-29 01:26 18.08058 -66.11953 9993 ft 168 kts 294°
2026-04-29 01:26 18.08536 -66.13075 9997 ft 168 kts 294°
2026-04-29 01:26 18.09009 -66.14183 10000 ft 168 kts 294°
2026-04-29 01:27 18.09488 -66.15305 9999 ft 168 kts 294°
2026-04-29 01:27 18.09966 -66.16428 10002 ft 168 kts 294°
2026-04-29 01:27 18.10444 -66.17551 10008 ft 168 kts 294°
2026-04-29 01:27 18.10926 -66.18684 10007 ft 169 kts 293°
2026-04-29 01:28 18.11405 -66.19810 9998 ft 170 kts 294°
2026-04-29 01:28 18.11892 -66.20956 9887 ft 175 kts 294°
2026-04-29 01:28 18.12399 -66.22152 9771 ft 179 kts 294°
2026-04-29 01:28 18.12909 -66.23350 9657 ft 181 kts 294°
2026-04-29 01:29 18.13422 -66.24558 9544 ft 182 kts 294°
2026-04-29 01:29 18.13941 -66.25777 9428 ft 183 kts 295°
2026-04-29 01:29 18.14461 -66.27004 9310 ft 183 kts 294°
2026-04-29 01:29 18.14986 -66.28233 9191 ft 184 kts 295°
2026-04-29 01:30 18.15507 -66.29457 9073 ft 184 kts 295°
2026-04-29 01:30 18.16027 -66.30685 8954 ft 184 kts 294°
2026-04-29 01:30 18.16552 -66.31915 8837 ft 185 kts 294°
2026-04-29 01:30 18.17076 -66.33148 8715 ft 183 kts 295°
2026-04-29 01:31 18.17593 -66.34366 8597 ft 183 kts 295°
2026-04-29 01:31 18.18116 -66.35596 8476 ft 182 kts 295°
2026-04-29 01:31 18.18631 -66.36811 8357 ft 182 kts 294°
2026-04-29 01:31 18.19146 -66.38024 8238 ft 182 kts 295°
2026-04-29 01:32 18.19664 -66.39248 8119 ft 182 kts 295°
2026-04-29 01:32 18.20179 -66.40465 8001 ft 182 kts 295°
2026-04-29 01:32 18.20688 -66.41669 7883 ft 182 kts 295°
2026-04-29 01:32 18.21210 -66.42899 7763 ft 183 kts 295°
2026-04-29 01:33 18.21727 -66.44111 7643 ft 183 kts 295°
2026-04-29 01:33 18.22247 -66.45345 7523 ft 183 kts 295°
2026-04-29 01:33 18.22765 -66.46562 7405 ft 183 kts 295°
2026-04-29 01:33 18.23284 -66.47789 7284 ft 183 kts 295°
2026-04-29 01:34 18.23796 -66.49001 7167 ft 183 kts 296°
2026-04-29 01:34 18.24324 -66.50243 7046 ft 183 kts 295°
2026-04-29 01:34 18.24838 -66.51462 6931 ft 183 kts 295°
2026-04-29 01:34 18.25355 -66.52677 6812 ft 180 kts 295°
2026-04-29 01:35 18.25862 -66.53879 6693 ft 179 kts 295°
2026-04-29 01:35 18.26365 -66.55068 6574 ft 178 kts 295°
2026-04-29 01:35 18.26870 -66.56264 6453 ft 177 kts 296°
2026-04-29 01:35 18.27371 -66.57447 6336 ft 177 kts 296°
2026-04-29 01:36 18.27873 -66.58630 6218 ft 177 kts 295°
2026-04-29 01:36 18.28370 -66.59811 6101 ft 177 kts 295°
2026-04-29 01:36 18.28875 -66.61003 5983 ft 177 kts 296°
2026-04-29 01:36 18.29373 -66.62180 5865 ft 177 kts 296°
2026-04-29 01:37 18.29873 -66.63370 5747 ft 177 kts 296°
2026-04-29 01:37 18.30375 -66.64558 5628 ft 177 kts 295°
2026-04-29 01:37 18.30872 -66.65731 5509 ft 177 kts 296°
2026-04-29 01:37 18.31371 -66.66913 5389 ft 177 kts 296°
2026-04-29 01:38 18.31871 -66.68097 5268 ft 176 kts 295°
2026-04-29 01:38 18.32372 -66.69285 5147 ft 177 kts 295°
2026-04-29 01:38 18.32869 -66.70460 5026 ft 177 kts 296°
2026-04-29 01:38 18.33368 -66.71648 4904 ft 177 kts 296°
2026-04-29 01:39 18.33866 -66.72828 4783 ft 177 kts 296°
2026-04-29 01:39 18.34371 -66.74023 4660 ft 177 kts 296°
2026-04-29 01:39 18.34868 -66.75202 4541 ft 177 kts 296°
2026-04-29 01:39 18.35369 -66.76389 4418 ft 178 kts 295°
2026-04-29 01:40 18.35875 -66.77586 4293 ft 178 kts 295°
2026-04-29 01:40 18.36373 -66.78775 4170 ft 178 kts 296°
2026-04-29 01:40 18.36867 -66.79974 4049 ft 179 kts 292°
2026-04-29 01:40 18.37289 -66.81197 3927 ft 178 kts 292°
2026-04-29 01:41 18.37714 -66.82431 3805 ft 178 kts 291°
2026-04-29 01:41 18.38129 -66.83646 3684 ft 178 kts 291°
2026-04-29 01:41 18.38542 -66.84866 3562 ft 178 kts 292°
2026-04-29 01:41 18.38954 -66.86095 3440 ft 177 kts 291°
2026-04-29 01:42 18.39372 -66.87314 3322 ft 177 kts 291°
2026-04-29 01:42 18.39788 -66.88533 3201 ft 177 kts 292°
2026-04-29 01:42 18.40202 -66.89772 3077 ft 178 kts 291°
2026-04-29 01:42 18.40622 -66.90999 2950 ft 178 kts 291°
2026-04-29 01:43 18.41039 -66.92214 2834 ft 178 kts 292°
2026-04-29 01:43 18.41457 -66.93434 2714 ft 178 kts 291°
2026-04-29 01:43 18.41882 -66.94659 2588 ft 178 kts 291°
2026-04-29 01:43 18.42312 -66.95889 2466 ft 178 kts 291°
2026-04-29 01:44 18.42739 -66.97105 2351 ft 176 kts 292°
2026-04-29 01:44 18.43156 -66.98315 2231 ft 175 kts 288°
2026-04-29 01:44 18.43482 -66.99548 2105 ft 175 kts 288°
2026-04-29 01:44 18.43809 -67.00783 1986 ft 175 kts 286°
2026-04-29 01:45 18.44131 -67.02018 1865 ft 175 kts 287°
2026-04-29 01:45 18.44451 -67.03258 1747 ft 175 kts 287°
2026-04-29 01:45 18.44764 -67.04489 1633 ft 175 kts 287°
2026-04-29 01:45 18.45084 -67.05740 1515 ft 174 kts 286°
2026-04-29 01:46 18.45407 -67.06952 1478 ft 170 kts 286°
2026-04-29 01:46 18.45719 -67.08128 1477 ft 165 kts 287°
2026-04-29 01:46 18.46028 -67.09293 1478 ft 163 kts 285°
2026-04-29 01:46 18.45988 -67.10480 1413 ft 166 kts 256°
2026-04-29 01:47 18.45740 -67.11673 1297 ft 169 kts 257°
2026-04-29 01:47 18.45463 -67.12887 1179 ft 170 kts 257°
2026-04-29 01:47 18.45196 -67.14099 1060 ft 169 kts 256°
2026-04-29 01:47 18.44928 -67.15293 981 ft 166 kts 257°
2026-04-29 01:48 18.44720 -67.16476 965 ft 160 kts 273°
2026-04-29 01:48 18.45213 -67.17459 976 ft 153 kts 323°
2026-04-29 01:48 18.46091 -67.17925 966 ft 129 kts 353°
2026-04-29 01:48 18.46933 -67.17805 805 ft 122 kts 20°
2026-04-29 01:49 18.47694 -67.17388 546 ft 124 kts 40°
2026-04-29 01:49 18.48216 -67.16788 535 ft 102 kts 55°
2026-04-29 01:49 18.48515 -67.16174 500 ft 88 kts 67°
2026-04-29 01:49 18.48698 -67.15591 437 ft 80 kts 72°
2026-04-29 01:50 18.48865 -67.15034 353 ft 78 kts 73°
2026-04-29 01:50 18.49029 -67.14478 270 ft 80 kts 71°
2026-04-29 01:50 18.49185 -67.13957 231 ft 62 kts 73°
2026-04-29 01:50 18.49283 -67.13625 224 ft 32 kts 71°
2026-04-29 01:51 18.49357 -67.13479 223 ft 14 kts 359°
2026-04-29 01:51 18.49424 -67.13519 223 ft 10 kts 275°
2026-04-29 01:51 18.49429 -67.13600 222 ft 13 kts 294°
2026-04-29 01:51 18.49462 -67.13685 223 ft 11 kts 272°
2026-04-29 01:52 18.49458 -67.13763 223 ft 9 kts 260°
2026-04-29 01:52 18.49433 -67.13848 224 ft 13 kts 252°
2026-04-29 01:52 18.49410 -67.13930 226 ft 9 kts 252°
2026-04-29 01:52 18.49374 -67.13930 227 ft 7 kts 83°
2026-04-29 01:53 18.49386 -67.13931 227 ft 0 kts 294°
2026-04-29 01:53 18.49388 -67.13935 227 ft 0 kts 295°